Location: Gälforsberget
(66.6500°N, 22.4167°E)
Time: 19:55:19
(UTC+00:00)

Cosmos 1315 Rocket - Pass Details

Date: 11 April 2026
Orbit: 490 x 510 km, 81.2° (Epoch: 16 May)

Event Time Altitude Azimuth Distance (km) Brightness Sun altitude
Exits shadow 22:15:36 24° 206° (SSW) 1,088 3.8 -14.7°
Maximum altitude 22:17:48 82° 293° (WNW) 520 2.7 -14.7°
Drops below altitude 10° 22:21:36 10° 21° (NNE) 1,728 6.4 -14.7°
Sets 22:23:44 0° 23° (NNE) 2,613 7.5 -14.7°
